When you browse on this site, cookies collect data to enhance your experience and personalize the content and advertising you see.
Visit our Privacy Policy to learn more. By continuing to use the site, you agree to this use of cookies and data.
  • In France
  • List of Countries
  • For 7 days
  • Water Temperature
  • Satellite Maps
  • Weather Map
  • Weather Widgets
  • user-avatar
    Login

    Hourly Weather Quito

    Today, 16 January, Wednesday

    Time Temperature Precipitation Wind Pressure Humidity
    00:00 +16°C° 0 mm 2 mps 622 mmHg 89%
    01:00 +16°C° 0 mm 2 mps 622 mmHg 91%
    02:00 +15°C° 0.1 mm 2 mps 622 mmHg 92%
    03:00 +15°C° 0.1 mm 2 mps 622 mmHg 92%
    04:00 +15°C° 0.1 mm 1 mps 622 mmHg 93%
    05:00 +15°C° 0.1 mm 1 mps 622 mmHg 93%
    06:00 +15°C° 0.1 mm 1 mps 622 mmHg 93%
    07:00 +16°C° 0 mm 1 mps 623 mmHg 93%
    08:00 +16°C° 0.1 mm 1 mps 623 mmHg 92%
    09:00 +18°C° 0.1 mm 1 mps 623 mmHg 90%
    10:00 +17°C° 0.1 mm 2 mps 623 mmHg 88%
    11:00 +19°C° 0 mm 2 mps 623 mmHg 80%
    12:00 +20°C° 0 mm 2 mps 623 mmHg 71%
    13:00 +23°C° 0 mm 2 mps 624 mmHg 63%
    14:00 +23°C° 0.1 mm 2 mps 623 mmHg 65%
    15:00 +23°C° 0.1 mm 2 mps 622 mmHg 67%
    16:00 +23°C° 0.1 mm 2 mps 622 mmHg 69%
    17:00 +21°C° 0.1 mm 1 mps 621 mmHg 76%
    18:00 +20°C° 0.1 mm 1 mps 621 mmHg 83%
    19:00 +18°C° 0.1 mm 1 mps 621 mmHg 89%
    20:00 +16°C° 0 mm 1 mps 621 mmHg 91%
    21:00 +16°C° 0 mm 1 mps 622 mmHg 93%
    22:00 +15°C° 0 mm 1 mps 622 mmHg 94%
    23:00 +15°C° 0 mm 1 mps 622 mmHg 95%

    Tomorrow, 17 January, Thursday

    Time Temperature Precipitation Wind Pressure Humidity
    00:00 +15°C° 0 mm 1 mps 621 mmHg 95%
    01:00 +15°C° 0 mm 1 mps 621 mmHg 95%
    02:00 +14°C° 0 mm 1 mps 621 mmHg 96%
    03:00 +14°C° 0 mm 1 mps 621 mmHg 96%
    04:00 +14°C° 0 mm 1 mps 621 mmHg 96%
    05:00 +14°C° 0 mm 1 mps 621 mmHg 94%
    06:00 +15°C° 0 mm 1 mps 621 mmHg 92%
    07:00 +16°C° 0 mm 1 mps 622 mmHg 91%
    08:00 +19°C° 0 mm 1 mps 623 mmHg 81%
    09:00 +22°C° 0 mm 1 mps 624 mmHg 72%
    10:00 +24°C° 0 mm 2 mps 625 mmHg 62%
    11:00 +24°C° 0.1 mm 2 mps 624 mmHg 62%
    12:00 +25°C° 0.1 mm 2 mps 624 mmHg 61%
    13:00 +25°C° 0.1 mm 2 mps 623 mmHg 61%
    14:00 +25°C° 0.6 mm 2 mps 623 mmHg 64%
    15:00 +25°C° 0.6 mm 2 mps 622 mmHg 66%
    16:00 +24°C° 0.6 mm 2 mps 621 mmHg 69%
    17:00 +23°C° 0.7 mm 2 mps 621 mmHg 76%
    18:00 +20°C° 0.7 mm 2 mps 621 mmHg 84%
    19:00 +18°C° 0.7 mm 2 mps 621 mmHg 91%
    20:00 +17°C° 0.2 mm 2 mps 622 mmHg 92%
    21:00 +18°C° 0.2 mm 1 mps 622 mmHg 93%
    22:00 +16°C° 0.2 mm 1 mps 622 mmHg 93%
    23:00 +16°C° 0 mm 1 mps 622 mmHg 93%

    Day after tomorrow, 18 January, Friday

    Time Temperature Precipitation Wind Pressure Humidity
    00:00 +16°C° 0 mm 1 mps 622 mmHg 94%
    01:00 +16°C° 0 mm 1 mps 621 mmHg 94%
    02:00 +16°C° 0 mm 1 mps 621 mmHg 94%
    03:00 +16°C° 0 mm 2 mps 621 mmHg 95%
    04:00 +15°C° 0 mm 2 mps 621 mmHg 95%
    05:00 +16°C° 0 mm 2 mps 621 mmHg 94%
    06:00 +16°C° 0 mm 2 mps 622 mmHg 93%
    07:00 +17°C° 0 mm 2 mps 622 mmHg 93%
    08:00 +20°C° 0 mm 1 mps 623 mmHg 85%
    09:00 +21°C° 0 mm 1 mps 624 mmHg 78%
    10:00 +23°C° 0 mm 1 mps 625 mmHg 71%
    11:00 +24°C° 0.4 mm 1 mps 624 mmHg 67%
    12:00 +25°C° 0.4 mm 2 mps 624 mmHg 64%
    13:00 +26°C° 0.4 mm 2 mps 624 mmHg 60%
    14:00 +25°C° 0.9 mm 1 mps 623 mmHg 65%
    15:00 +24°C° 0.9 mm 1 mps 622 mmHg 70%
    16:00 +23°C° 0.9 mm 1 mps 622 mmHg 75%
    17:00 +22°C° 0.4 mm 1 mps 622 mmHg 80%
    18:00 +21°C° 0.4 mm 1 mps 622 mmHg 84%
    19:00 +19°C° 0.4 mm 1 mps 622 mmHg 89%
    20:00 +19°C° 0.2 mm 1 mps 622 mmHg 90%
    21:00 +19°C° 0.2 mm 1 mps 622 mmHg 90%
    22:00 +18°C° 0.2 mm 1 mps 623 mmHg 91%
    23:00 +18°C° 0 mm 1 mps 622 mmHg 92%

    19 January, Saturday

    Time Temperature Precipitation Wind Pressure Humidity
    00:00 +16°C° 0 mm 1 mps 622 mmHg 92%
    01:00 +16°C° 0 mm 1 mps 621 mmHg 93%
    02:00 +16°C° 0 mm 1 mps 621 mmHg 93%
    03:00 +16°C° 0 mm 1 mps 621 mmHg 92%
    04:00 +16°C° 0 mm 1 mps 621 mmHg 92%
    05:00 +18°C° 0 mm 1 mps 621 mmHg 91%
    06:00 +18°C° 0 mm 1 mps 622 mmHg 90%
    07:00 +19°C° 0 mm 1 mps 623 mmHg 88%
    08:00 +21°C° 0.4 mm 1 mps 623 mmHg 81%
    09:00 +23°C° 0.4 mm 1 mps 624 mmHg 74%
    10:00 +26°C° 0.4 mm 1 mps 625 mmHg 67%
    11:00 +27°C° 0.5 mm 1 mps 624 mmHg 63%
    12:00 +28°C° 0.5 mm 1 mps 624 mmHg 58%
    13:00 +29°C° 0.5 mm 1 mps 624 mmHg 54%
    14:00 +28°C° 0.8 mm 1 mps 623 mmHg 58%
    15:00 +27°C° 0.8 mm 1 mps 622 mmHg 63%
    16:00 +26°C° 0.8 mm 1 mps 622 mmHg 68%
    17:00 +24°C° 0.7 mm 1 mps 622 mmHg 74%
    18:00 +22°C° 0.7 mm 1 mps 622 mmHg 80%
    19:00 +19°C° 0.7 mm 2 mps 621 mmHg 87%
    20:00 +18°C° 1.3 mm 2 mps 622 mmHg 89%
    21:00 +18°C° 1.3 mm 2 mps 622 mmHg 92%
    22:00 +18°C° 1.3 mm 1 mps 622 mmHg 94%
    23:00 +17°C° 0.7 mm 2 mps 622 mmHg 94%

    20 January, Sunday

    Time Temperature Precipitation Wind Pressure Humidity
    00:00 +17°C° 0.7 mm 2 mps 622 mmHg 94%
    01:00 +17°C° 0.7 mm 3 mps 622 mmHg 94%
    02:00 +17°C° 0.4 mm 2 mps 622 mmHg 95%
    03:00 +16°C° 0.4 mm 2 mps 621 mmHg 96%
    04:00 +16°C° 0.4 mm 2 mps 621 mmHg 97%
    05:00 +16°C° 0 mm 2 mps 622 mmHg 96%
    06:00 +17°C° 0 mm 2 mps 623 mmHg 95%
    07:00 +17°C° 0 mm 2 mps 623 mmHg 94%
    08:00 +19°C° 0 mm 2 mps 624 mmHg 85%
    09:00 +21°C° 0 mm 2 mps 625 mmHg 76%
    10:00 +24°C° 0 mm 2 mps 625 mmHg 67%
    11:00 +25°C° 0.2 mm 2 mps 625 mmHg 63%
    12:00 +26°C° 0.2 mm 2 mps 625 mmHg 59%
    13:00 +27°C° 0.2 mm 2 mps 624 mmHg 55%
    14:00 +26°C° 0.4 mm 2 mps 624 mmHg 62%
    15:00 +25°C° 0.4 mm 2 mps 623 mmHg 68%
    16:00 +25°C° 0.4 mm 2 mps 622 mmHg 74%
    17:00 +23°C° 1.5 mm 2 mps 622 mmHg 79%
    18:00 +20°C° 1.5 mm 2 mps 622 mmHg 85%
    19:00 +19°C° 1.5 mm 2 mps 622 mmHg 90%
    20:00 +18°C° 1.8 mm 2 mps 623 mmHg 92%
    21:00 +19°C° 1.8 mm 1 mps 623 mmHg 93%
    22:00 +19°C° 1.8 mm 1 mps 623 mmHg 94%
    23:00 +18°C° 0.7 mm 1 mps 623 mmHg 94%

    21 January, Monday

    Time Temperature Precipitation Wind Pressure Humidity
    00:00 +16°C° 0.7 mm 0 mps 622 mmHg 95%
    01:00 +16°C° 0.7 mm 0 mps 622 mmHg 95%
    02:00 +16°C° 0 mm 0 mps 622 mmHg 95%
    03:00 +15°C° 0 mm 0 mps 622 mmHg 95%
    04:00 +15°C° 0 mm 0 mps 621 mmHg 95%
    05:00 +18°C° 0 mm 1 mps 622 mmHg 95%
    06:00 +18°C° 0 mm 1 mps 623 mmHg 94%
    07:00 +19°C° 0 mm 1 mps 623 mmHg 93%
    08:00 +20°C° 0.3 mm 1 mps 624 mmHg 86%
    09:00 +21°C° 0.3 mm 2 mps 624 mmHg 79%
    10:00 +24°C° 0.3 mm 2 mps 625 mmHg 72%
    11:00 +24°C° 0.7 mm 2 mps 624 mmHg 73%
    12:00 +24°C° 0.7 mm 2 mps 624 mmHg 74%
    13:00 +24°C° 0.7 mm 3 mps 623 mmHg 74%
    14:00 +23°C° 0.8 mm 2 mps 623 mmHg 77%
    15:00 +23°C° 0.8 mm 2 mps 622 mmHg 79%
    16:00 +23°C° 0.8 mm 2 mps 622 mmHg 81%
    17:00 +21°C° 0.5 mm 2 mps 622 mmHg 85%
    18:00 +20°C° 0.5 mm 2 mps 622 mmHg 90%
    19:00 +20°C° 0.5 mm 1 mps 622 mmHg 94%
    20:00 +19°C° 0.2 mm 1 mps 622 mmHg 94%
    21:00 +18°C° 0.2 mm 1 mps 622 mmHg 93%
    22:00 +18°C° 0.2 mm 1 mps 622 mmHg 92%
    23:00 +16°C° 0 mm 1 mps 622 mmHg 93%
    Show more